Terminal Aerodrome Forecast
Issued by NWS

Home | Current Version | Previous Version | Text Only | Print | Product List | Glossary On
Versions: 1 2 3 4 5 6 7 8 9 10 11 12 13 14 15 16 17 18 19 20 21 22 23 24 25 26
989
FTUS46 KOTX 091138
TAFCOE
TAF
KCOE 091138Z 0912/1012 05009KT P6SM FEW010 SCT200
     FM100900 07004KT 6SM BR SCT004
      AMD LTD TO CLD AND VIS=

USA.gov is the U.S. government's official web portal to all federal, state and local government web resources and services.